Wind_Speed
20 20 21 23 25 26 27 28 29 31 31 33 34 37 36 36 33 31 24 23 26 23 21 13 6 2 1 1 6 19 13 8 25 29 23 8 16 6 7 6 4 11 6 4 10 8 5
21 21 22 23 25 26 27 28 30 31 32 34 37 39 38 39 36 31 22 23 27 22 14 12 2 1 1 1 4 19 6 15 26 26 17 10 10 5 5 5 9 6 15 9 8 11 7
20 21 22 23 25 26 27 29 31 33 35 37 39 39 38 40 37 30 21 23 27 18 9 11 9 4 3 7 12 9 3 6 21 24 7 10 5 9 5 2 8 10 6 4 6 5 5
20 21 21 23 24 26 28 30 32 34 36 37 40 41 40 41 37 27 21 25 19 9 8 7 7 1 4 7 12 15 14 5 16 18 1 9 2 1 2 3 4 6 5 1 3 7 6
20 21 22 23 24 26 28 30 33 35 37 39 42 43 42 40 36 23 21 20 12 5 8 10 3 1 5 17 14 14 12 3 13 19 8 2 3 1 2 1 4 5 4 6 3 8 3
20 21 22 24 24 27 29 31 33 35 38 40 42 44 46 40 32 18 21 7 9 6 5 1 1 1 7 9 17 17 12 6 4 8 2 1 3 2 3 5 6 6 4 4 4 4 7
21 22 23 24 26 28 29 32 35 37 38 40 43 45 49 40 26 16 19 1 6 5 10 0 8 3 6 14 4 19 17 4 5 4 7 5 4 17 27 9 3 3 4 6 4 5 5
20 22 24 25 26 28 31 33 35 37 39 43 45 46 49 36 15 13 19 7 7 4 6 4 5 4 12 5 3 19 24 4 3 4 5 3 12 12 5 6 6 5 3 4 4 3 6
20 21 23 25 26 28 31 33 35 38 40 43 45 46 45 29 5 9 10 11 10 3 3 7 4 3 13 2 4 14 9 5 3 4 7 6 6 11 9 6 10 12 10 6 2 3 5
20 21 23 25 27 29 32 34 36 39 40 42 44 45 40 24 3 10 2 9 19 8 4 4 5 7 12 2 5 8 12 4 3 3 7 7 14 6 10 15 11 10 11 15 8 2 3
21 22 23 25 27 29 32 35 37 38 40 41 43 45 32 14 8 3 7 23 2 3 3 3 4 4 6 6 5 8 13 6 3 5 2 6 4 11 11 17 12 12 7 12 12 4 2
22 22 23 25 27 29 31 34 36 38 39 41 43 42 24 8 9 9 22 18 3 5 4 1 2 4 5 6 4 5 6 6 3 3 2 7 5 4 11 14 17 5 2 5 3 3 11
22 23 24 25 26 29 30 32 34 37 39 41 42 36 11 9 9 17 15 3 4 4 3 2 2 4 3 5 6 7 5 11 5 7 7 8 5 5 10 4 14 10 11 1 3 5 14
23 23 24 25 26 28 29 31 33 36 39 42 40 30 5 18 22 9 4 5 3 2 1 1 2 1 3 4 3 6 4 3 12 6 2 4 6 5 7 14 8 15 12 6 8 5 13
21 22 23 24 25 26 28 30 33 36 39 42 41 22 3 24 17 5 5 3 4 1 2 2 3 3 3 3 2 3 5 3 3 5 4 5 6 11 9 5 13 6 18 10 4 1 2
20 22 22 23 24 25 27 29 31 34 38 38 30 11 6 28 9 2 4 4 4 1 1 3 3 2 2 2 1 2 1 2 6 5 6 3 8 7 11 7 12 16 9 11 4 9 5
20 21 22 22 23 25 26 26 29 31 36 32 8 4 16 27 3 5 3 4 4 4 1 6 6 4 5 3 5 4 4 2 4 6 4 4 4 9 11 7 14 10 14 10 8 6 9
18 20 21 22 24 25 25 25 26 28 33 23 6 3 21 25 4 2 2 5 6 2 2 3 4 6 6 6 3 5 7 5 8 7 3 2 4 7 9 18 9 7 6 10 12 17 3
17 20 22 22 23 24 23 23 24 23 24 13 4 3 13 13 4 4 6 5 4 3 3 2 3 6 4 5 2 5 4 5 10 7 6 7 4 6 7 10 4 5 8 9 3 6 19
18 20 21 23 23 23 22 22 21 19 19 13 3 4 4 5 2 2 5 4 5 5 1 5 4 2 2 1 3 3 4 6 9 6 7 6 6 9 7 4 6 7 12 7 3 8 11
19 20 21 22 23 22 21 20 18 16 15 7 2 0 0 4 3 3 3 4 7 5 4 7 3 4 4 3 2 4 5 3 6 9 4 3 7 12 21 21 17 17 16 14 5 7 11
19 21 22 22 22 22 21 19 16 13 11 2 2 2 2 2 2 6 2 2 5 6 2 5 7 8 7 4 6 8 6 5 7 8 7 5 6 6 11 17 18 19 17 17 14 7 8
21 22 23 23 22 21 20 18 14 10 6 1 0 0 1 2 2 3 1 4 7 10 7 15 8 6 8 14 10 11 10 7 8 9 12 6 3 3 6 5 10 8 11 5 7 10 2
22 23 24 23 22 21 18 15 12 8 5 4 2 1 1 3 3 3 6 14 14 13 7 10 12 8 6 7 9 10 10 15 14 14 11 7 5 3 6 4 10 6 4 14 17 15 14
24 25 24 23 21 18 16 13 10 8 6 8 5 2 1 2 4 8 9 8 11 11 7 5 8 9 5 3 3 5 2 4 9 16 16 10 4 4 3 4 9 3 6 5 5 10 18
26 25 23 21 19 17 15 12 10 8 6 6 8 8 2 1 2 6 6 8 4 4 4 4 9 6 2 1 3 3 2 1 3 3 9 6 7 3 2 5 5 4 11 10 6 5 19
27 24 21 19 18 17 14 12 9 7 4 4 3 7 2 1 3 2 3 3 2 3 3 5 8 6 2 3 2 2 2 3 4 3 5 4 4 13 11 5 3 12 13 8 4 2 15
26 22 19 19 18 16 13 10 7 5 2 2 1 4 5 2 3 4 3 3 3 1 2 6 5 2 3 3 2 3 2 5 3 3 1 1 3 1 3 4 4 18 4 7 1 7 10
22 19 19 18 17 14 9 7 5 3 0 2 1 3 6 2 3 9 12 7 5 5 2 2 3 3 2 3 3 3 3 4 7 2 6 3 3 2 4 4 9 8 11 8 9 5 11
Wind_Direction
23 20 18 20 22 22 20 18 15 14 11 9 7 6 5 2 357 354 350 346 342 341 338 343 340 306 328 339 258 1 345 148 166 168 171 152 165 142 176 190 156 225 261 273 254 277 269
18 18 17 18 20 20 17 16 14 12 9 8 6 3 3 0 357 352 350 345 340 343 339 349 46 168 103 282 325 351 45 160 173 174 176 154 177 169 159 189 193 204 226 254 285 263 254
15 15 14 15 18 17 15 14 11 10 8 6 4 1 359 358 355 351 349 343 336 347 358 5 118 52 55 238 341 31 2 202 192 190 166 186 155 172 143 131 251 245 294 318 244 250 239
14 14 13 15 16 14 13 12 9 7 5 4 3 359 356 354 351 351 348 342 340 1 11 53 123 124 253 320 335 346 337 261 205 192 225 211 194 63 192 294 358 171 155 183 227 193 244
14 15 13 12 11 11 10 9 7 4 3 2 1 358 354 351 348 348 351 337 6 46 43 105 91 65 4 332 341 340 337 230 166 194 213 139 160 200 325 358 8 352 184 195 285 183 178
12 10 9 9 7 7 6 4 3 1 360 359 358 357 354 348 348 355 359 357 60 50 36 9 73 356 351 322 334 337 8 134 129 130 26 79 97 143 19 148 209 192 184 243 189 205 185
7 4 5 5 4 2 1 0 359 358 356 355 356 356 353 347 351 11 19 35 18 351 37 92 286 223 289 327 334 351 355 128 99 110 163 193 154 206 214 205 256 193 211 189 226 228 139
1 0 359 0 359 357 356 356 355 354 353 353 354 354 350 347 353 28 49 84 124 245 317 311 247 254 281 318 339 354 2 86 166 173 135 121 227 228 171 192 223 251 267 256 273 207 175
355 356 354 355 355 354 352 352 352 352 351 350 352 352 348 349 27 18 73 114 347 312 98 301 268 319 337 20 63 356 9 321 141 176 197 179 237 178 186 182 202 230 235 230 157 332 213
349 351 351 350 351 351 349 348 350 350 350 348 348 351 346 349 31 355 59 357 330 178 63 291 349 359 354 5 47 11 352 9 316 215 194 223 245 216 201 209 183 227 202 249 268 357 221
344 345 347 347 348 348 346 346 347 347 347 346 345 349 344 344 308 320 326 335 358 137 349 64 3 353 340 74 273 345 340 2 351 298 51 229 216 205 228 219 188 237 161 214 239 213 272
342 341 342 344 344 345 345 345 345 344 345 345 343 349 353 350 337 326 327 333 139 50 233 57 72 345 23 351 25 309 12 14 90 324 241 235 240 180 239 219 208 201 151 164 130 167 245
340 341 341 342 343 343 345 345 344 345 344 343 340 349 27 22 330 327 335 51 40 151 345 93 336 356 62 335 15 357 37 42 46 19 14 329 258 170 235 299 200 177 172 254 219 208 236
341 340 340 340 342 343 346 344 345 346 343 341 338 344 327 4 349 347 2 53 198 84 75 101 50 318 81 357 62 4 15 78 40 43 9 21 311 182 172 201 208 205 188 170 192 210 235
339 340 340 340 343 347 347 346 346 345 342 341 338 345 63 350 354 355 66 44 208 182 284 22 11 86 336 358 79 17 10 108 82 53 59 344 262 329 277 294 206 209 209 184 116 241 203
338 337 339 342 344 348 348 347 346 345 343 345 339 337 332 349 356 57 78 221 201 226 327 75 151 215 223 256 136 59 339 183 125 117 112 9 300 271 295 294 252 215 164 206 207 213 242
332 335 338 341 344 346 347 348 347 348 346 349 5 12 351 357 64 51 162 221 238 238 160 185 193 214 217 211 164 192 218 164 114 121 117 153 204 290 321 217 206 213 207 210 177 182 222
330 333 337 342 343 343 347 349 348 353 350 358 2 3 354 356 48 36 32 311 296 264 348 284 177 195 200 178 221 207 208 167 111 118 136 129 278 271 259 266 305 310 244 186 203 213 202
329 333 335 338 339 341 345 346 349 356 357 344 356 293 357 17 61 348 319 303 280 327 296 277 256 205 185 177 197 219 203 147 133 151 177 170 224 280 284 264 222 199 234 231 137 185 221
329 332 334 335 337 338 341 342 345 351 350 354 9 354 344 34 48 66 347 297 309 315 264 343 282 95 70 209 249 267 219 173 167 183 201 189 231 228 253 306 12 324 327 243 258 217 214
330 331 334 334 334 332 335 337 341 344 345 353 31 357 111 337 359 352 308 303 304 319 347 7 296 89 39 282 299 220 245 232 166 221 149 162 252 257 264 268 276 270 269 279 257 259 215
330 332 332 330 329 329 331 334 338 339 342 25 85 57 339 279 285 315 310 262 278 306 264 255 235 290 293 237 230 260 229 199 213 204 168 181 265 272 264 258 247 252 254 244 241 255 253
332 332 329 328 328 328 330 332 333 331 338 334 205 107 128 275 298 306 276 296 297 296 259 249 250 275 258 256 263 241 231 239 227 180 190 192 236 246 265 287 197 241 238 229 91 51 359
333 331 327 326 328 331 332 334 329 319 281 243 246 138 191 301 280 290 281 293 298 304 286 276 276 272 241 314 296 255 232 231 224 227 174 173 216 230 276 294 187 139 60 71 98 62 38
334 331 327 328 333 334 335 336 331 314 288 250 243 209 166 267 261 291 302 309 302 305 290 305 264 256 312 288 298 308 259 176 232 230 196 179 191 265 253 265 116 115 36 10 12 48 21
332 330 329 333 334 336 337 331 324 314 303 261 264 243 174 272 247 273 299 306 312 332 314 302 302 287 286 275 245 237 221 192 188 106 179 177 196 228 290 243 150 44 325 324 237 49 1
330 331 333 336 338 339 339 335 331 327 316 260 254 224 143 238 263 251 302 314 265 272 299 278 327 328 46 296 279 297 222 235 144 138 154 179 202 216 227 278 121 347 327 304 90 347 342
333 333 336 340 342 343 343 342 341 341 340 217 299 245 205 226 276 218 283 295 294 208 306 328 334 342 323 323 313 311 310 4 32 47 109 124 257 246 251 218 73 342 30 67 2 13 2
333 336 340 344 348 351 357 359 359 20 87 147 95 19 250 268 281 300 280 290 249 277 285 282 292 275 320 319 341 320 351 340 341 51 2 46 329 286 3 34 319 69 74 45 16 358 15
Height
854 851 847 843 839 836 832 828 824 820 816 811 806 800 794 788 783 777 772 768 764 760 756 753 752 752 753 753 745 736 731 729 736 741 744 748 756 763 771 769 765 769 762 757 752 753 755
854 851 847 844 840 837 833 829 825 820 815 810 804 798 792 786 780 774 769 766 762 758 754 751 751 752 753 754 741 739 734 734 735 739 743 745 752 753 762 764 767 754 757 759 755 755 753
856 853 849 845 841 838 834 829 825 820 814 809 803 797 791 785 778 772 767 764 759 756 754 751 751 754 755 750 741 739 738 738 738 739 742 745 747 752 755 762 754 757 766 759 757 749 755
857 854 850 847 843 839 835 830 825 820 814 808 802 796 789 783 776 770 765 761 757 756 754 751 753 754 755 740 739 738 737 736 739 743 747 748 751 753 756 752 755 765 765 782 754 749 745
858 854 851 847 843 839 835 830 825 819 813 807 800 793 787 780 773 767 763 758 756 755 754 753 754 754 748 741 740 738 736 735 738 745 749 749 753 760 758 769 781 777 785 778 763 744 745
859 855 852 848 844 839 834 829 824 818 811 805 799 792 785 777 771 766 760 756 756 756 756 755 756 757 746 750 743 739 735 736 739 746 754 755 762 771 777 782 801 787 781 769 765 747 747
860 856 852 848 843 839 834 828 822 816 810 803 796 789 783 775 769 766 761 759 763 763 758 764 765 761 753 749 744 741 736 736 740 748 764 759 773 768 754 764 765 767 767 769 755 741 750
860 856 852 848 844 839 834 829 822 817 810 802 794 787 780 773 769 768 764 766 775 779 777 762 759 759 753 751 752 744 738 741 745 757 758 767 769 755 757 763 768 769 772 771 756 740 750
860 856 852 848 844 839 834 828 823 816 808 800 793 785 778 772 770 770 769 771 772 771 781 768 759 757 755 751 756 755 747 746 745 753 758 767 756 749 757 763 771 772 776 771 764 751 743
860 856 852 848 843 838 833 826 820 813 806 799 791 785 776 772 773 772 771 771 770 768 790 771 764 761 758 751 760 755 750 752 747 749 750 756 743 748 754 759 763 784 760 761 764 769 783
860 856 852 847 842 837 832 825 819 812 806 798 791 784 777 772 774 773 773 769 767 768 794 766 769 761 762 765 763 760 754 751 758 756 752 753 745 748 755 751 754 757 753 762 763 772 770
859 855 851 846 841 836 831 825 819 812 805 797 789 783 775 774 773 772 769 767 768 786 790 773 770 771 772 769 766 764 761 758 759 761 753 747 733 739 739 735 742 740 751 761 765 778 785
858 854 850 846 840 835 830 824 818 811 803 795 787 781 778 776 775 770 767 767 789 792 772 780 779 777 776 779 777 774 775 780 785 778 782 764 744 729 731 745 737 745 761 800 803 798 768
857 853 849 845 840 834 829 823 817 811 803 794 785 779 778 776 772 768 766 780 785 776 776 775 777 778 782 781 782 780 780 785 787 789 793 795 763 733 726 736 743 742 751 783 800 793 764
854 850 846 843 838 833 828 822 816 810 802 793 782 775 776 775 770 768 775 794 786 781 778 778 779 784 785 782 781 785 788 787 791 791 798 801 780 754 739 728 727 741 747 741 766 769 776
852 849 845 841 837 832 828 823 816 809 801 793 784 780 777 772 768 769 784 788 782 776 775 776 784 783 787 785 786 786 784 782 792 790 794 795 792 765 746 731 717 722 720 753 762 769 779
851 847 844 839 835 831 827 823 818 810 801 792 786 787 777 771 768 777 790 793 779 773 772 777 782 782 784 783 785 789 784 781 781 789 791 799 799 772 762 738 721 724 722 721 727 750 748
847 845 842 838 834 830 826 823 819 812 802 796 796 795 779 773 787 803 802 798 784 775 773 774 775 779 781 781 782 785 783 776 778 785 793 793 799 784 762 731 726 738 716 717 723 741 750
846 843 841 837 833 829 826 822 818 814 809 806 806 803 785 778 806 812 805 796 787 778 777 774 773 773 773 779 783 781 776 773 777 785 792 797 798 777 757 728 720 724 708 705 715 708 719
845 841 839 836 832 828 825 821 818 815 812 809 809 809 801 798 809 811 808 801 790 777 777 777 774 772 774 777 781 778 778 774 778 782 782 791 790 784 767 741 750 746 733 705 713 709 708
844 841 837 833 830 827 823 820 817 815 813 811 813 817 815 815 814 811 810 805 795 785 781 781 776 779 784 788 782 786 779 776 780 780 785 795 783 779 767 762 758 752 741 728 728 710 701
840 838 835 832 828 824 821 819 817 814 813 811 814 815 816 812 810 808 808 803 797 793 794 785 786 776 784 787 782 781 777 779 776 780 784 789 784 772 766 749 744 743 724 719 716 706 697
838 835 832 828 824 821 819 816 814 813 812 811 812 812 813 808 806 805 803 800 795 794 788 783 780 781 779 777 771 772 772 773 773 774 780 786 782 775 764 727 726 733 713 703 702 705 703
836 832 828 825 821 818 816 814 812 811 811 812 811 812 812 807 806 802 799 797 792 789 786 784 782 781 775 769 767 762 766 764 764 763 766 774 777 775 759 738 711 705 696 688 698 702 703
832 828 825 821 818 815 813 811 810 809 809 809 809 810 810 809 805 800 796 793 791 787 784 780 776 772 768 768 768 770 761 754 754 747 751 760 774 765 758 728 695 697 706 711 709 709 707
829 825 821 818 815 813 811 809 808 807 807 807 808 808 809 808 801 799 795 792 791 789 785 779 770 766 765 767 763 753 754 743 742 747 747 760 767 764 748 727 694 714 708 702 699 718 708
826 822 818 814 812 810 808 806 805 805 805 806 806 806 807 808 801 800 794 793 792 792 792 787 772 770 765 767 758 751 744 749 736 736 747 753 754 753 743 721 706 714 704 694 705 733 719
823 819 815 812 809 808 806 805 804 803 804 805 806 805 806 805 800 798 796 793 790 790 791 784 779 774 771 764 759 757 748 746 741 748 745 742 736 721 719 703 705 712 703 715 731 727 722
820 816 813 810 807 806 805 804 803 803 803 804 805 804 804 806 801 798 794 792 791 789 787 786 785 778 774 772 769 764 754 756 750 743 748 744 748 744 740 730 736 727 731 734 733 732 725